Weatherdata for SK6EI
Location: Mountain Billingen, JO68VK in Skövde

Date & Time Temperature Wind (no data) Rain Pressure
Direction Average Gust
18/06-2019 16:53 CEST 21.4 °C - 0 m/s 0 m/s 0.0 mm 1016 hPa, falling slowly
17:53 CEST 19.2 °C - 0 m/s 0 m/s 0.0 mm 1016 hPa, falling
18:53 CEST 18.9 °C - 0 m/s 0 m/s 0.0 mm 1016 hPa, falling slowly
19:53 CEST 18.8 °C - 0 m/s 0 m/s 0.0 mm 1016 hPa, falling slowly
20:53 CEST 17.9 °C - 0 m/s 0 m/s 0.0 mm 1016 hPa, falling slowly
21:53 CEST 17.0 °C - 0 m/s 0 m/s 0.0 mm 1015 hPa, falling slowly
22:13 CEST 16.6 °C - 0 m/s 0 m/s 0.0 mm 1015 hPa, falling slowly


24 hours ending 0053 CEST on 18 Jun 2019 Date & time
Daytime max temp 22.2 °C 17/06-20191403 CEST
Night min temp 10.0 °C 17/06-20190453 CEST
Total rainfall 2.4 mm -
Average wind speed 0 m/s -
Highest gust speed 0 m/s 17/06-20190843 CEST
 
From 0100 CEST on 18 Jun to 2213 CEST on 18 Jun 2019 Date & time
Daytime max temp 23.1 °C 18/06-20191043 CEST
Night min temp 10.5 °C 18/06-20190433 CEST
Total rainfall 0.0 mm -
Average wind speed 0 m/s -
Highest gust speed 0 m/s 18/06-20190103 CEST


Choose graph for latest | Hour | 24 Hours | 7 Days | 28 Days | 31 Days table |

24 hours ending Temperature Rainfall
  day max     night min  
 2019/05/19 00:53 CEST   18.3 °C  7.8 °C  13.5 mm
 2019/05/20 00:53 CEST   20.7 °C  11.8 °C  1.2 mm
 2019/05/21 00:53 CEST   21.3 °C  13.3 °C  3.0 mm
 2019/05/22 00:53 CEST   24.1 °C  12.2 °C  0.0 mm
 2019/05/23 00:53 CEST   25.2 °C  9.8 °C  15.6 mm
 2019/05/24 00:53 CEST   17.6 °C  7.9 °C  0.0 mm
 2019/05/25 00:53 CEST   12.2 °C  7.8 °C  11.7 mm
 2019/05/26 00:53 CEST   19.5 °C  7.6 °C  0.6 mm
 2019/05/27 00:53 CEST   15.0 °C  2.9 °C  0.0 mm
 2019/05/28 00:53 CEST   12.8 °C  5.5 °C  3.0 mm
 2019/05/29 00:53 CEST   17.1 °C  4.7 °C  1.5 mm
 2019/05/30 00:53 CEST   14.9 °C  3.6 °C  0.0 mm
 2019/05/31 00:53 CEST   14.6 °C  2.9 °C  0.6 mm
 2019/06/01 00:53 CEST   17.8 °C  6.0 °C  0.0 mm
 2019/06/02 00:53 CEST   15.0 °C  5.2 °C  0.6 mm
 2019/06/03 00:53 CEST   20.8 °C  9.0 °C  0.0 mm
 2019/06/04 00:53 CEST   25.5 °C  11.2 °C  1.2 mm
 2019/06/05 00:53 CEST   20.4 °C  8.4 °C  0.0 mm
 2019/06/06 00:53 CEST   29.9 °C  7.5 °C  0.0 mm
 2019/06/07 00:53 CEST   29.0 °C  15.5 °C  0.0 mm
 2019/06/08 00:53 CEST   23.2 °C  12.5 °C  0.0 mm
 2019/06/09 00:53 CEST   24.3 °C  10.8 °C  2.4 mm
 2019/06/10 00:53 CEST   14.3 °C  8.9 °C  1.2 mm
 2019/06/11 00:53 CEST   20.8 °C  8.8 °C  0.0 mm
 2019/06/12 00:53 CEST   15.4 °C  10.5 °C  5.4 mm
 2019/06/13 00:53 CEST   11.5 °C  10.0 °C  8.4 mm
 2019/06/14 00:53 CEST   22.6 °C  9.3 °C  1.5 mm
 2019/06/15 00:53 CEST   23.2 °C  8.3 °C  0.3 mm
 2019/06/16 00:53 CEST   25.8 °C  10.8 °C  0.0 mm
 2019/06/17 00:53 CEST   25.9 °C  11.8 °C  0.0 mm
 2019/06/18 00:53 CEST   22.2 °C  10.0 °C  2.4 mm